Weather Roundup
Issued by NWS

Home | Current Version | Previous Version | Text Only | Print | Product List | Glossary On
Versions: 1 2 3 4 5 6 7 8 9 10 11 12 13 14 15 16 17 18 19 20 21 22 23 24 25 26 27 28 29 30 31 32 33 34 35 36 37 38 39 40 41 42 43 44 45 46 47 48 49 50
000
NZUS93 KARX 220959
HRRWXR

CURRENT HOURLY OBSERVATIONS ACROSS
MUCH OF THE UPPER MISSISSIPPI VALLEY
NATIONAL WEATHER SERVICE LA CROSSE WI
400 AM CST THU FEB 22 2018


...SOUTHEAST MINNESOTA...


CITY           SKY/WX    TMP DP  RH WIND       PRES   REMARKS
ROCHESTER      MOCLDY    16  11  80 E5        30.55R WCI   9
ROCHESTER/MAYO PTSUNNY   16   9  72 E3        30.57R
WINONA         CLOUDY    18  12  79 CALM      30.61R
AUSTIN         MOCLDY    19  16  86 SE3       30.55R
ALBERT LEA     CLOUDY    18  12  79 CALM      30.53R
DODGE CENTER   FAIR      12   9  85 CALM      30.55R
PRESTON        CLOUDY    18  13  81 SE5       30.55F WCI  11
OWATONNA       MOCLDY    12   7  79 CALM      30.56R
FARIBAULT      CLOUDY     7   3  85 CALM      30.58R
$$

...ELSEWHERE IN MINNESOTA...


CITY           SKY/WX    TMP DP  RH WIND       PRES   REMARKS
MINNEAPOLIS    MOCLDY     8   3  80 CALM      30.61R
INTNL FALLS    FAIR     -17 -18  95 SE3       30.53F
DULUTH         FAIR      -2  -6  83 W3        30.54F
RED WING       FAIR       5   0  78 CALM      30.60F
REDWOOD FALLS  FAIR       4   0  83 SE6       30.55S WCI  -7
MANKATO        CLOUDY    11   6  81 E8        30.57R WCI  -1
WORTHINGTON    FAIR      11   8  88 E6        30.49F WCI   1
FAIRMONT       FAIR      15  11  83 CALM      30.54R
$$

...SOUTHWEST WISCONSIN...


CITY           SKY/WX    TMP DP  RH WIND       PRES   REMARKS
LA CROSSE      CLOUDY    20  15  81 CALM      30.61S
PRAIRIE DU CHI CLOUDY    24  13  64 E5        30.59F WCI  18
BOSCOBEL       CLOUDY    24  15  68 NE6       30.60F WCI  17
LONE ROCK      NOT AVBL
PLATTEVILLE    FAIR      24  16  72 NE12      30.54F WCI  13
FORT MC COY    CLOUDY    19  15  86 CALM      30.62R
CAMP DOUGLAS   MOCLDY    18  13  79 CALM      30.60R
MAUSTON-NEW LI CLOUDY    20  14  76 CALM      30.60R
VIROQUA        CLOUDY    20  17  89 E6        30.56R WCI  12
WIS DELLS      CLOUDY    20  13  74 E5        30.59S WCI  14
$$

...ELSEWHERE IN WISCONSIN...


CITY           SKY/WX    TMP DP  RH WIND       PRES   REMARKS
MILWAUKEE      CLOUDY    30  23  75 NE10      30.57F WCI  21
MADISON        CLOUDY    22  14  71 NE8       30.58F WCI  12
GREEN BAY      FAIR      19  10  68 NE5       30.62F WCI  12
EAU CLAIRE     NOT AVBL
BLACK RVR FLS  CLOUDY    13   8  81 CALM      30.61R
MEDFORD        FAIR       2  -2  83 NE3       30.54F
WAUSAU         FAIR       5   2  87 CALM      30.57R
WIS RAPIDS     CLOUDY    14   7  73 CALM      30.61R
MARSHFIELD     FAIR      10   3  73 E3        30.57R
RICE LAKE      FAIR      -4  -8  83 CALM      30.61S
$$

...NORTHEAST IOWA...


CITY           SKY/WX    TMP DP  RH WIND       PRES   REMARKS
WATERLOO       CLOUDY    23  16  74 NE7       30.55S WCI  15
DUBUQUE        CLOUDY    23  13  65 NE8       30.53S WCI  14
DECORAH        CLOUDY    21  16  79 E8        30.54F WCI  12
MASON CITY     LGT SNOW  20  17  88 SE10      30.54F FOG     WCI   9
CHARLES CITY   LGT SNOW  21  21 100 E6        30.56R WCI  14
OELWEIN        MOCLDY    23  19  86 NE9       30.54F WCI  13
$$

...ELSEWHERE IN IOWA...


CITY           SKY/WX    TMP DP  RH WIND       PRES   REMARKS
DES MOINES     FLURRIES  25  17  72 NE8       30.48F WCI  16
IOWA CITY      CLOUDY    28  16  60 NE8       30.52F WCI  20
FORT DODGE     LGT SNOW  20  18  92 E9        30.49F VSB 3/4 WCI   9
MARSHALLTOWN   CLOUDY    24  17  74 E10       30.51F WCI  14
CEDAR RAPIDS   CLOUDY    26  15  63 E13       30.49F WCI  15
$$

...NORTHERN ILLINOIS...


CITY           SKY/WX    TMP DP  RH WIND       PRES   REMARKS
CHICAGO-OHARE  CLOUDY    31  25  78 NE10      30.53F WCI  22
CHICAGO-MIDWAY CLOUDY    32  26  78 NE14      30.53S WCI  22
MOLINE         CLOUDY    28  19  69 NE10      30.50F WCI  19
ROCKFORD       CLOUDY    27  19  72 NE10      30.55F WCI  17
PEORIA         CLOUDY    30  25  81 NE9G22    30.46F WCI  22
$$

NOTE: "FAIR" INDICATES FEW OR NO CLOUDS BELOW 12,000 FEET WITH NO
SIGNIFICANT WEATHER AND/OR OBSTRUCTIONS TO VISIBILITY. WIND
SPEEDS ARE IN MILES-PER-HOUR.




USA.gov is the U.S. government's official web portal to all federal, state and local government web resources and services.